Skip Page Navigation
NASA JPL Caltech
NASA Logo - Jet Propulsion Laboratory + View the NASA Portal
+ Center for Near-Earth Object Studies
JPL Home Earth Solar System Stars & Galaxies Technology
JPL Solar System Dynamics
BODIES ORBITS EPHEMERIDES TOOLS PHYSICAL DATA DISCOVERY FAQ SITE MAP
IMPORTANT: The SSD Announcement email list is now available. Major changes are coming in the near future, including possible hostname and/or URL changes. To be notified of such changes, subscribe to this email list.

Please visit this page for more details.


JPL Small-Body Database Browser
Search: [ help ]  
39063 (2000 UZ110)
Classification: Main-belt Asteroid          SPK-ID: 2039063
Ephemeris | Orbit Diagram | Orbital Elements | Mission Design | Physical Parameters | Discovery Circumstances | Close-Approach Data ]

[ show orbit diagram ]
Orbital Elements at Epoch 2458600.5 (2019-Apr-27.0) TDB
Reference: JPL 18 (heliocentric ecliptic J2000)
 Element Value Uncertainty (1-sigma)   Units 
e .06801270084583061 5.4936e-08  
a 2.767993265399046 2.0244e-08 au
q 2.579734567496186 1.5266e-07 au
i 4.48661404494475 5.7526e-06 deg
node 22.32511822793967 5.6213e-05 deg
peri 197.9163718372971 6.6892e-05 deg
M 192.8648514536845 3.8765e-05 deg
tp 2459381.428479851930
(2021-Jun-15.92847985)
0.00018405 TDB
period 1682.077379844422
4.61
1.8453e-05
5.052e-08
d
yr
n .2140210696093524 2.3479e-09 deg/d
Q 2.956251963301905 2.1621e-08 au
  Orbit Determination Parameters
   # obs. used (total)      668  
   data-arc span      9422 days (25.80 yr)  
   first obs. used      1993-02-26  
   last obs. used      2018-12-14  
   planetary ephem.      DE431  
   SB-pert. ephem.      SB431-N16  
   condition code      0  
   norm. resid. RMS      .62674  
   source      ORB  
   producer      Otto Matic  
   solution date      2019-Jul-13 02:04:52  

Additional Information
 Earth MOID = 1.57227 au 
 Jupiter MOID = 2.01441 au 
 T_jup = 3.331 
[ show covariance matrix ]

Ephemeris | Orbit Diagram | Orbital Elements | Mission Design | Physical Parameters | Discovery Circumstances | Close-Approach Data ]

Physical Parameter Table
Parameter Symbol Value Units Sigma Reference Notes
absolute magnitude H 15.1   n/a MPO439359  
diameter diameter 3.504 km 1.108 urn:nasa:pds:neowise_diameters_albedos::2.0[mainbelt] (http://adsabs.harvard.edu/abs/2011ApJ...741...68M)  
geometric albedo albedo 0.144   0.094 urn:nasa:pds:neowise_diameters_albedos::2.0[mainbelt] (http://adsabs.harvard.edu/abs/2011ApJ...741...68M)  

39063 (2000 UZ110)          Discovered 2000-Oct-26 by Spacewatch at Kitt Peak
Reference: 20020328/Numbers.arcLast Updated: 2004-04-19

[ show close-approach data ]
Alternate Designations
 2000 UZ110 = 2002 CM163 
Ephemeris | Orbit Diagram | Orbital Elements | Mission Design | Physical Parameters | Discovery Circumstances | Close-Approach Data ]
ABOUT SSD CREDITS/AWARDS PRIVACY/COPYRIGHT GLOSSARY LINKS
FirstGov 2020-Jan-28 20:38 UT
(server date/time)  
NASA Home Page
Site Manager:   Ryan S. Park
Webmaster  Alan B. Chamberlin